TimeMST,TemperatureF,Dew PointF,Humidity,Sea Level PressureIn,VisibilityMPH,Wind Direction,Wind SpeedMPH,Gust SpeedMPH,PrecipitationIn,Events,Conditions,WindDirDegrees,DateUTC
12:52 AM,51.1,37.9,61,29.51,10.0,South,28.8,35.7,N/A,,Mostly Cloudy,180,2012-11-09 07:52:00
1:52 AM,52.0,41.0,66,29.50,10.0,South,25.3,35.7,0.00,,Mostly Cloudy,180,2012-11-09 08:52:00
2:52 AM,50.0,42.1,74,29.50,10.0,South,23.0,32.2,N/A,,Clear,180,2012-11-09 09:52:00
3:00 AM,-9999,-9999,N/A,-9999,-9999.0,North,-9999.0,-,N/A,,Unknown,0,2012-11-09 10:00:00
3:52 AM,52.0,42.1,69,29.50,10.0,South,29.9,35.7,N/A,,Mostly Cloudy,190,2012-11-09 10:52:00
4:52 AM,50.0,44.1,80,29.50,8.0,South,23.0,38.0,0.01,Rain,Light Rain,180,2012-11-09 11:52:00
5:52 AM,48.9,43.0,80,29.51,10.0,South,23.0,32.2,0.02,Rain,Light Rain,190,2012-11-09 12:52:00
6:52 AM,48.9,42.1,77,29.50,10.0,South,21.9,28.8,0.01,,Mostly Cloudy,190,2012-11-09 13:52:00
7:52 AM,48.0,42.1,80,29.52,10.0,SSW,17.3,-,0.00,,Mostly Cloudy,200,2012-11-09 14:52:00
8:52 AM,48.0,43.0,83,29.52,10.0,SSW,17.3,-,0.00,Rain,Light Rain,200,2012-11-09 15:52:00
9:52 AM,48.9,43.0,80,29.51,10.0,SSW,15.0,-,0.00,Rain,Light Rain,200,2012-11-09 16:52:00
10:52 AM,48.9,42.1,77,29.51,10.0,South,19.6,27.6,0.03,,Mostly Cloudy,190,2012-11-09 17:52:00
11:52 AM,51.1,39.9,66,29.49,10.0,SSW,31.1,41.4,0.00,,Overcast,210,2012-11-09 18:52:00
12:14 PM,48.2,42.8,82,29.59,6.0,SW,32.2,46.0,0.00,Rain,Light Rain,230,2012-11-09 19:14:00
12:52 PM,46.0,39.9,79,29.50,10.0,SW,32.2,42.6,0.01,Rain,Light Rain,230,2012-11-09 19:52:00
1:52 PM,46.0,39.9,79,29.49,7.0,SW,25.3,36.8,0.05,Rain,Light Rain,220,2012-11-09 20:52:00
2:24 PM,44.6,39.2,81,29.58,5.0,SSW,28.8,41.4,0.03,Rain,Light Rain,210,2012-11-09 21:24:00
2:32 PM,44.6,41.0,87,29.57,8.0,SW,20.7,38.0,0.04,Rain,Light Rain,220,2012-11-09 21:32:00
2:38 PM,44.6,41.0,87,29.57,10.0,SW,20.7,27.6,0.04,Rain,Light Rain,230,2012-11-09 21:38:00
2:52 PM,46.9,41.0,80,29.50,10.0,SW,19.6,32.2,0.04,,Mostly Cloudy,220,2012-11-09 21:52:00
3:21 PM,42.8,37.4,81,29.60,4.0,SW,25.3,36.8,0.01,Rain,Rain,220,2012-11-09 22:21:00
3:34 PM,42.8,37.4,81,29.59,10.0,SSW,23.0,33.4,0.02,Rain,Light Rain,210,2012-11-09 22:34:00
3:52 PM,43.0,37.9,82,29.55,10.0,SW,18.4,26.5,0.02,Rain,Light Rain,220,2012-11-09 22:52:00
4:00 PM,-9999,-9999,N/A,-9999,-9999.0,North,-9999.0,-,N/A,,Unknown,0,2012-11-09 23:00:00
4:10 PM,33.8,30.2,87,29.63,9.0,North,8.1,-,0.00,,Overcast,360,2012-11-09 23:10:00
4:24 PM,33.8,30.2,87,29.64,2.5,North,17.3,24.2,0.00,Snow,Light Snow,350,2012-11-09 23:24:00
4:32 PM,33.8,30.2,87,29.63,1.8,North,15.0,24.2,0.00,Snow,Light Snow,10,2012-11-09 23:32:00
4:36 PM,33.8,30.2,87,29.64,1.5,North,21.9,-,0.00,Snow,Light Snow,350,2012-11-09 23:36:00
4:52 PM,33.1,30.9,92,29.60,2.0,North,13.8,-,0.00,Snow,Light Snow,360,2012-11-09 23:52:00
5:22 PM,32.0,30.2,93,29.65,4.0,North,18.4,-,0.00,Snow,Light Snow,10,2012-11-10 00:22:00
5:52 PM,32.0,30.0,92,29.64,3.0,North,13.8,-,0.00,Snow,Light Snow,10,2012-11-10 00:52:00
6:04 PM,30.2,30.2,100,29.67,1.5,NNE,15.0,-,0.01,Snow,Light Snow,20,2012-11-10 01:04:00
6:27 PM,30.2,30.2,100,29.68,2.5,North,17.3,23.0,0.01,Snow,Light Snow,10,2012-11-10 01:27:00
6:56 PM,30.2,28.4,93,29.70,3.0,North,13.8,-,0.00,Snow,Light Snow,10,2012-11-10 01:56:00
7:40 PM,30.2,28.4,93,29.71,7.0,WNW,11.5,17.3,0.01,Snow,Light Snow,290,2012-11-10 02:40:00
7:52 PM,30.9,28.0,89,29.68,5.0,North,13.8,-,0.01,Snow,Light Snow,360,2012-11-10 02:52:00
8:04 PM,30.2,28.4,93,29.71,2.5,North,12.7,-,0.00,Snow,Light Snow,360,2012-11-10 03:04:00
8:19 PM,30.2,28.4,93,29.71,1.5,North,12.7,-,0.01,Snow,Light Snow,360,2012-11-10 03:19:00
8:29 PM,30.2,28.4,93,29.72,0.8,North,13.8,-,0.02,Snow,Light Snow,360,2012-11-10 03:29:00
8:46 PM,30.2,28.4,93,29.73,1.2,North,11.5,-,0.04,Snow,Light Snow,360,2012-11-10 03:46:00
8:52 PM,30.0,28.0,92,29.70,1.2,North,11.5,-,0.05,Snow,Light Snow,360,2012-11-10 03:52:00
9:34 PM,30.2,28.4,93,29.73,0.8,North,9.2,-,0.04,Snow,Light Snow,350,2012-11-10 04:34:00
9:52 PM,30.0,28.0,92,29.70,1.0,North,9.2,-,0.06,Snow,Light Snow,10,2012-11-10 04:52:00
10:13 PM,30.2,28.4,93,29.72,1.5,NNE,5.8,-,0.02,Snow,Light Snow,30,2012-11-10 05:13:00
10:28 PM,30.2,28.4,93,29.72,2.5,NNE,4.6,-,0.02,Snow,Light Snow,30,2012-11-10 05:28:00
10:33 PM,30.2,28.4,93,29.72,3.0,NNE,4.6,-,0.02,Snow,Light Snow,30,2012-11-10 05:33:00
10:41 PM,30.2,28.4,93,29.72,4.0,NE,4.6,-,0.02,Snow,Light Snow,50,2012-11-10 05:41:00
10:52 PM,28.9,28.0,96,29.69,4.0,NE,6.9,-,0.02,Snow,Light Snow,40,2012-11-10 05:52:00
11:52 PM,28.0,26.1,92,29.68,10.0,NNW,6.9,-,0.01,,Overcast,340,2012-11-10 06:52:00